Flag for U.S.A. Weather past 2 weeks in Dallas, Texas, U.S.A.

Now
72 °F

Passing clouds.


Feels Like: 77 °F
Forecast: 61 / 75 °F
Wind: 9 mph from South

Location: Dallas Love Field

Current Time: Mar 30, 2015 at 12:18:38 AM

Latest Report: Mar 29, 2015 at 11:53 PM


Visibility: 10 mi

Pressure: 30.06 "Hg

Humidity: 55%

Dew point: 55 °F

Location of DallasLocation

Historic Weather in Dallas — Graph

°F

Dallas temperature yesterday

Maximum temperature yesterday: 85 °F (at 3:53 PM)
Minimum temperature yesterday: 58 °F (at 7:53 AM)
Average temperature yesterday: 72 °F

Past Weeks' High & Low Weather Summary

 TemperatureHumidityPressure
High85 °F (Mar 29, 3:53 PM)97% (Mar 19, 7:53 AM)30.31 "Hg (Mar 19, 7:53 AM)
Low48 °F (Mar 27, 5:53 AM)26% (Mar 26, 6:53 PM)29.74 "Hg (Mar 25, 11:53 PM)
Average64 °F68%30.04 "Hg
* Reported Mar 14 10:53 PM — Mar 29 10:53 PM, Dallas, Weather by CustomWeather, © 2015

Note: Actual official high and low records may vary slightly from our data, if they occured in-between our weather recording intervals... More about our weather records

Advertising

Dallas weather history for previous 24 hours

 ConditionsComfort  
Time TempWeatherWind HumidityBarometerVisibility
10:53 PM
Sun, Mar 29
74 °FPassing clouds.8 mph52%30.06 "Hg10 mi
9:53 PM75 °FPassing clouds.6 mph50%30.04 "Hg10 mi
8:53 PM77 °FPassing clouds.12 mph45%29.99 "Hg10 mi
7:53 PM80 °FPassing clouds.15 mph38%29.96 "Hg10 mi
6:53 PM83 °FPassing clouds.13 mph36%29.95 "Hg10 mi
5:53 PM84 °FPassing clouds.10 mph36%29.94 "Hg10 mi
4:53 PM84 °FPassing clouds.17 mph37%29.90 "Hg10 mi
3:53 PM85 °FPassing clouds.18 mph39%29.93 "Hg10 mi
2:53 PM82 °FSunny.15 mph40%29.95 "Hg10 mi
1:53 PM81 °FSunny.17 mph44%29.98 "Hg10 mi
12:53 PM78 °FSunny.14 mph43%29.99 "Hg10 mi
11:53 AM75 °FSunny.15 mph45%30.02 "Hg10 mi
10:53 AM70 °FSunny.12 mph49%30.03 "Hg10 mi
9:53 AM64 °FSunny.15 mph58%30.03 "Hg10 mi
8:53 AM60 °FSunny.13 mph65%30.04 "Hg10 mi
7:53 AM58 °FClear.13 mph67%30.02 "Hg10 mi
6:53 AM59 °FClear.13 mph64%30.01 "Hg10 mi
5:53 AM60 °FClear.13 mph60%30.00 "Hg10 mi
4:53 AM60 °FClear.12 mph60%29.99 "Hg10 mi
3:53 AM61 °FClear.12 mph56%29.99 "Hg10 mi
2:53 AM65 °FClear.14 mph49%30.00 "Hg10 mi
1:53 AM66 °FClear.13 mph47%30.01 "Hg10 mi
12:53 AM67 °FClear.10 mph45%30.00 "Hg10 mi
Weather by CustomWeather, © 2015

See weather overviewHow to use our weather pages